When you browse on this site, cookies collect data to enhance your experience and personalize the content and advertising you see.
Visit our Privacy Policy to learn more. By continuing to use the site, you agree to this use of cookies and data.
  • En España
  • Lista de países
  • Para 7 días
  • Temperatura del agua
  • Mapa Satelital
  • El tiempo en el mapa
  • Informadores
  • user-avatar
    Iniciar sesión

    Tiempo cada hora Ordino

    Hoy, 16 Diciembre, Domingo

    Tiempo Temperatura Precipitaciones Viento Presión Humedad
    00:00 +3°C° 0 mm 0 mps 633 mmHg 89%
    01:00 +4°C° 0.2 mm 1 mps 632 mmHg 90%
    02:00 +4°C° 0.2 mm 1 mps 632 mmHg 91%
    03:00 +4°C° 0.2 mm 1 mps 632 mmHg 93%
    04:00 +4°C° 0.2 mm 1 mps 632 mmHg 93%
    05:00 +4°C° 0.2 mm 1 mps 632 mmHg 93%
    06:00 +3°C° 0 mm 0 mps 632 mmHg 93%
    07:00 +4°C° 1.1 mm 1 mps 632 mmHg 94%
    08:00 +4°C° 1.1 mm 1 mps 632 mmHg 94%
    09:00 +4°C° 1.1 mm 1 mps 632 mmHg 94%
    10:00 +4°C° 1 mm 1 mps 632 mmHg 94%
    11:00 +3°C° 1 mm 2 mps 632 mmHg 94%
    12:00 +4°C° 1 mm 2 mps 631 mmHg 94%
    13:00 +4°C° 0.3 mm 2 mps 631 mmHg 93%
    14:00 +4°C° 0.3 mm 2 mps 631 mmHg 93%
    15:00 +4°C° 0.3 mm 2 mps 631 mmHg 93%
    16:00 +3°C° 0.5 mm 2 mps 631 mmHg 94%
    17:00 +1°C° 0.5 mm 3 mps 631 mmHg 94%
    18:00 0°C° 0.5 mm 3 mps 631 mmHg 95%
    19:00 0°C° 0.4 mm 3 mps 632 mmHg 93%
    20:00 0°C° 0.4 mm 3 mps 632 mmHg 90%
    21:00 -1°C° 0.4 mm 3 mps 633 mmHg 88%
    22:00 -1°C° 0 mm 3 mps 633 mmHg 87%
    23:00 -2°C° 0 mm 3 mps 633 mmHg 86%

    Mañana, 17 Diciembre, Lunes

    Tiempo Temperatura Precipitaciones Viento Presión Humedad
    00:00 -4°C° 0 mm 3 mps 633 mmHg 86%
    01:00 -4°C° 0 mm 3 mps 633 mmHg 85%
    02:00 -4°C° 0 mm 3 mps 634 mmHg 83%
    03:00 -5°C° 0 mm 3 mps 634 mmHg 82%
    04:00 -5°C° 0 mm 3 mps 634 mmHg 82%
    05:00 -5°C° 0 mm 3 mps 635 mmHg 81%
    06:00 -5°C° 0 mm 3 mps 635 mmHg 81%
    07:00 -4°C° 0 mm 3 mps 636 mmHg 79%
    08:00 -2°C° 0 mm 3 mps 637 mmHg 77%
    09:00 -1°C° 0 mm 3 mps 637 mmHg 75%
    10:00 +1°C° 0 mm 2 mps 638 mmHg 69%
    11:00 +2°C° 0 mm 2 mps 638 mmHg 63%
    12:00 +3°C° 0 mm 2 mps 639 mmHg 58%
    13:00 +4°C° 0 mm 1 mps 639 mmHg 59%
    14:00 +4°C° 0 mm 1 mps 639 mmHg 61%
    15:00 +4°C° 0 mm 1 mps 639 mmHg 63%
    16:00 +2°C° 0 mm 1 mps 638 mmHg 67%
    17:00 +1°C° 0 mm 1 mps 638 mmHg 71%
    18:00 -1°C° 0 mm 1 mps 637 mmHg 75%
    19:00 -1°C° 0 mm 1 mps 637 mmHg 72%
    20:00 -1°C° 0 mm 1 mps 637 mmHg 70%
    21:00 0°C° 0 mm 1 mps 637 mmHg 68%
    22:00 -1°C° 0 mm 1 mps 637 mmHg 69%
    23:00 -1°C° 0 mm 1 mps 637 mmHg 70%

    Pasado mañana, 18 Diciembre, Martes

    Tiempo Temperatura Precipitaciones Viento Presión Humedad
    00:00 -3°C° 0 mm 2 mps 636 mmHg 71%
    01:00 -1°C° 0 mm 1 mps 636 mmHg 70%
    02:00 -1°C° 0 mm 1 mps 636 mmHg 69%
    03:00 -1°C° 0 mm 1 mps 635 mmHg 68%
    04:00 -3°C° 0 mm 2 mps 635 mmHg 66%
    05:00 -3°C° 0 mm 2 mps 635 mmHg 64%
    06:00 -3°C° 0 mm 2 mps 634 mmHg 62%
    07:00 -1°C° 0 mm 2 mps 635 mmHg 59%
    08:00 +1°C° 0 mm 2 mps 635 mmHg 56%
    09:00 +2°C° 0 mm 2 mps 635 mmHg 53%
    10:00 +3°C° 0 mm 2 mps 635 mmHg 51%
    11:00 +3°C° 0 mm 3 mps 635 mmHg 49%
    12:00 +5°C° 0 mm 3 mps 635 mmHg 48%
    13:00 +4°C° 0 mm 3 mps 635 mmHg 50%
    14:00 +3°C° 0 mm 3 mps 634 mmHg 53%
    15:00 +3°C° 0 mm 3 mps 634 mmHg 55%
    16:00 +3°C° 0 mm 2 mps 633 mmHg 57%
    17:00 +2°C° 0 mm 2 mps 633 mmHg 60%
    18:00 +1°C° 0 mm 2 mps 633 mmHg 62%
    19:00 +1°C° 0 mm 2 mps 633 mmHg 62%
    20:00 +1°C° 0 mm 2 mps 633 mmHg 63%
    21:00 +1°C° 0 mm 2 mps 633 mmHg 64%
    22:00 +2°C° 0 mm 1 mps 633 mmHg 67%
    23:00 +2°C° 0 mm 1 mps 633 mmHg 70%

    19 Diciembre, Miércoles

    Tiempo Temperatura Precipitaciones Viento Presión Humedad
    00:00 +1°C° 0 mm 1 mps 633 mmHg 73%
    01:00 +2°C° 0.1 mm 1 mps 633 mmHg 75%
    02:00 +2°C° 0.1 mm 1 mps 633 mmHg 77%
    03:00 +2°C° 0.1 mm 1 mps 633 mmHg 79%
    04:00 +1°C° 0 mm 1 mps 632 mmHg 81%
    05:00 0°C° 0 mm 0 mps 632 mmHg 84%
    06:00 -1°C° 0 mm 0 mps 632 mmHg 87%
    07:00 0°C° 0 mm 0 mps 633 mmHg 85%
    08:00 0°C° 0 mm 0 mps 633 mmHg 83%
    09:00 +2°C° 0 mm 1 mps 634 mmHg 81%
    10:00 +3°C° 0 mm 1 mps 634 mmHg 76%
    11:00 +4°C° 0 mm 1 mps 634 mmHg 71%
    12:00 +5°C° 0 mm 1 mps 634 mmHg 66%
    13:00 +4°C° 0 mm 2 mps 634 mmHg 66%
    14:00 +3°C° 0 mm 2 mps 634 mmHg 67%
    15:00 +3°C° 0 mm 2 mps 634 mmHg 68%
    16:00 +1°C° 0 mm 2 mps 634 mmHg 73%
    17:00 -1°C° 0 mm 2 mps 634 mmHg 78%
    18:00 -1°C° 0 mm 1 mps 633 mmHg 83%
    19:00 -1°C° 0 mm 1 mps 634 mmHg 81%
    20:00 -1°C° 0 mm 1 mps 634 mmHg 79%
    21:00 -1°C° 0 mm 1 mps 634 mmHg 77%
    22:00 -1°C° 0 mm 1 mps 634 mmHg 76%
    23:00 -2°C° 0 mm 1 mps 634 mmHg 75%

    20 Diciembre, Jueves

    Tiempo Temperatura Precipitaciones Viento Presión Humedad
    00:00 -2°C° 0 mm 1 mps 634 mmHg 73%
    01:00 -2°C° 0 mm 1 mps 634 mmHg 73%
    02:00 -2°C° 0 mm 1 mps 634 mmHg 73%
    03:00 -2°C° 0 mm 1 mps 634 mmHg 72%
    04:00 -2°C° 0 mm 1 mps 634 mmHg 72%
    05:00 -2°C° 0 mm 1 mps 635 mmHg 72%
    06:00 -4°C° 0 mm 2 mps 635 mmHg 72%
    07:00 -1°C° 0 mm 1 mps 635 mmHg 70%
    08:00 0°C° 0 mm 1 mps 636 mmHg 69%
    09:00 +1°C° 0 mm 1 mps 637 mmHg 67%
    10:00 +3°C° 0 mm 1 mps 637 mmHg 63%
    11:00 +4°C° 0 mm 1 mps 638 mmHg 58%
    12:00 +6°C° 0 mm 1 mps 638 mmHg 54%
    13:00 +5°C° 0 mm 1 mps 638 mmHg 57%
    14:00 +5°C° 0 mm 1 mps 637 mmHg 60%
    15:00 +4°C° 0 mm 1 mps 637 mmHg 63%
    16:00 +3°C° 0 mm 1 mps 637 mmHg 69%
    17:00 +1°C° 0 mm 1 mps 636 mmHg 75%
    18:00 0°C° 0 mm 1 mps 636 mmHg 80%
    19:00 -1°C° 0 mm 1 mps 636 mmHg 79%
    20:00 -1°C° 0 mm 1 mps 636 mmHg 78%
    21:00 -1°C° 0 mm 1 mps 637 mmHg 76%
    22:00 0°C° 0 mm 1 mps 637 mmHg 75%
    23:00 0°C° 0 mm 1 mps 636 mmHg 73%

    21 Diciembre, Viernes

    Tiempo Temperatura Precipitaciones Viento Presión Humedad
    00:00 0°C° 0 mm 1 mps 636 mmHg 72%
    01:00 +1°C° 0 mm 1 mps 636 mmHg 70%
    02:00 +1°C° 0 mm 1 mps 636 mmHg 68%
    03:00 +2°C° 0 mm 1 mps 636 mmHg 67%
    04:00 +2°C° 0 mm 1 mps 636 mmHg 66%
    05:00 +2°C° 0 mm 1 mps 636 mmHg 65%
    06:00 +2°C° 0 mm 1 mps 636 mmHg 65%
    07:00 +3°C° 0.1 mm 1 mps 637 mmHg 64%
    08:00 +4°C° 0.1 mm 1 mps 637 mmHg 62%
    09:00 +5°C° 0.1 mm 1 mps 638 mmHg 61%
    10:00 +6°C° 0.1 mm 1 mps 638 mmHg 63%
    11:00 +7°C° 0.1 mm 1 mps 639 mmHg 65%
    12:00 +8°C° 0.1 mm 1 mps 639 mmHg 67%
    13:00 +8°C° 0 mm 1 mps 639 mmHg 71%
    14:00 +8°C° 0 mm 1 mps 639 mmHg 74%
    15:00 +8°C° 0 mm 1 mps 639 mmHg 77%
    16:00 +7°C° 0 mm 1 mps 639 mmHg 80%
    17:00 +6°C° 0 mm 1 mps 639 mmHg 84%
    18:00 +5°C° 0 mm 1 mps 639 mmHg 87%
    19:00 +5°C° 0 mm 1 mps 639 mmHg 86%
    20:00 +4°C° 0 mm 1 mps 639 mmHg 85%
    21:00 +4°C° 0 mm 1 mps 639 mmHg 85%
    22:00 +4°C° 0 mm 1 mps 639 mmHg 84%
    23:00 +4°C° 0 mm 1 mps 639 mmHg 83%
    Mostrar más